Stations météo

Publicité
Amsterdam Airport, Pays-Bas (6240): Température de l'air & dewpoint: 12.01.2018 06:00:00 - 18.01.2018 06:00:00 (CET)Amsterdam Airport, Pays-Bas (6240): Température de l'air 5cm: 12.01.2018 06:00:00 - 18.01.2018 06:00:00 (CET)Amsterdam Airport, Pays-Bas (6240): Vitesse du vent & gusts: 12.01.2018 06:00:00 - 18.01.2018 06:00:00 (CET)Amsterdam Airport, Pays-Bas (6240): Direction du vent: 12.01.2018 06:00:00 - 18.01.2018 06:00:00 (CET)Amsterdam Airport, Pays-Bas (6240): reduced air pressure: 12.01.2018 06:00:00 - 18.01.2018 06:00:00 (CET)Amsterdam Airport, Pays-Bas (6240): visibility: 12.01.2018 06:00:00 - 18.01.2018 06:00:00 (CET)Amsterdam Airport, Pays-Bas (6240): Quantités de précipitations: 12.01.2018 06:00:00 - 18.01.2018 06:00:00 (CET)
Date & Time tt [°C] td [°C] tt 5cm [°C] ff [km/h] ff [knt] fx [km/h] fx [knt] dd ppp [hPa] vv [km] rr [mm]
18.01.2018 06:00:00 5,4 4,7 4,7 39 21 58 31 S 986,3 7 1,1
18.01.2018 05:00:00 3,2 2,4 2,7 42 23 68 37 S 990,3 6 1,7
18.01.2018 04:00:00 3,1 2,0 2,9 35 19 - - S 994,7 6 1,7
18.01.2018 03:00:00 4,1 2,5 3,7 26 14 47 25 SSW 998,0 10 0,6
18.01.2018 02:00:00 5,2 2,0 4,4 39 21 50 27 SW 1000,4 10 0,2
18.01.2018 01:00:00 5,0 2,1 4,5 21 11 36 19 SW 1002,3 10 0,0
18.01.2018 00:00:00 5,8 1,2 4,9 22 12 40 21 WSW 1003,6 10 0,0
17.01.2018 23:00:00 5,6 0,8 4,8 26 14 43 23 WSW 1004,3 10 0,0
17.01.2018 22:00:00 5,8 1,0 4,9 31 17 - - WSW 1004,6 10 0,0
17.01.2018 21:00:00 6,3 0,9 5,4 31 17 50 27 W 1004,4 10 0,0
17.01.2018 20:00:00 5,9 0,7 5,2 29 16 50 27 W 1004,4 10 0,0
17.01.2018 19:00:00 5,8 0,8 4,8 34 18 54 29 W 1004,5 10 0,0
17.01.2018 18:00:00 5,4 0,7 4,5 35 19 58 31 W 1004,1 10 0,0
17.01.2018 17:00:00 5,5 0,9 4,7 39 21 65 35 W 1003,5 10 0,0
17.01.2018 16:00:00 5,9 0,2 5,1 42 23 - - W 1002,5 10 0,0
17.01.2018 15:00:00 5,8 0,8 5,1 41 22 72 39 WNW 1001,4 10 0,0
17.01.2018 14:00:00 5,3 0,7 4,3 46 25 72 39 W 1000,6 10 0,0
17.01.2018 13:00:00 5,5 0,9 5,4 54 29 76 41 W 999,2 10 0,0
17.01.2018 12:00:00 4,9 0,7 4,4 44 24 76 41 W 998,4 10 0,0
17.01.2018 11:00:00 4,8 1,0 4,3 46 25 65 35 W 997,7 10 0,0
17.01.2018 10:00:00 4,0 0,6 3,2 39 21 65 35 W 996,9 10 0,3
17.01.2018 09:00:00 3,4 -0,2 2,5 37 20 65 35 W 996,1 10 0,0
17.01.2018 08:00:00 3,5 -0,9 2,4 31 17 54 29 W 995,0 10 0,0
17.01.2018 07:00:00 3,3 -1,2 2,2 37 20 61 33 W 993,8 10 0,0
17.01.2018 06:00:00 3,2 -0,4 2,1 41 22 61 33 W 992,8 9 0,0
17.01.2018 05:00:00 3,4 -0,7 2,5 39 21 58 31 W 992,0 10 0,0
17.01.2018 04:00:00 3,9 -0,7 3,0 43 23 58 31 W 991,4 32 0,0
17.01.2018 03:00:00 3,6 0,1 2,8 34 18 50 27 W 991,0 10 0,0
17.01.2018 02:00:00 3,7 -0,1 2,6 34 18 47 25 W 990,5 10 0,0
17.01.2018 01:00:00 3,9 -0,1 2,9 31 17 47 25 W 990,4 10 0,0
17.01.2018 00:00:00 3,1 1,2 2,5 41 22 54 29 W 991,0 8 0,5
16.01.2018 23:00:00 3,9 0,5 3,3 29 16 47 25 WSW 990,4 10 0,1
16.01.2018 22:00:00 4,7 0,5 3,6 22 12 40 21 W 991,0 10 0,2
16.01.2018 21:00:00 5,0 0,0 3,8 31 17 47 25 WSW 991,3 10 0,2
16.01.2018 20:00:00 5,3 -0,2 4,1 22 12 43 23 WSW 991,6 10 0,0
16.01.2018 19:00:00 5,3 -0,2 4,1 28 15 43 23 W 991,7 10 0,0
16.01.2018 18:00:00 4,9 0,5 4,2 28 15 50 27 WSW 992,1 10 0,0
16.01.2018 17:00:00 5,2 0,6 4,5 29 16 47 25 W 992,5 10 0,0
16.01.2018 16:00:00 5,8 0,2 5,2 39 21 61 33 W 992,3 10 0,0
16.01.2018 15:00:00 5,9 0,9 4,8 39 21 58 31 W 992,2 10 0,0
16.01.2018 14:00:00 6,1 1,3 5,5 40 21 61 33 W 992,0 22 0,0
16.01.2018 13:00:00 5,8 1,3 5,4 42 23 58 31 W 992,0 10 0,0
16.01.2018 12:00:00 5,6 1,4 5,2 42 23 58 31 W 991,8 10 0,0
16.01.2018 11:00:00 5,4 1,8 4,7 37 20 58 31 W 991,3 10 0,0
16.01.2018 10:00:00 5,2 1,9 4,7 35 19 61 33 W 990,5 10 0,0
16.01.2018 09:00:00 4,6 1,5 4,1 35 19 72 39 WSW 989,4 10 1,2
16.01.2018 08:00:00 6,1 2,9 5,3 26 14 61 33 W 988,8 10 0,4
16.01.2018 07:00:00 6,6 3,7 5,8 29 16 47 25 W 988,8 10 0,0
16.01.2018 06:00:00 6,5 3,3 5,5 34 18 50 27 WSW 988,8 10 0,0
16.01.2018 05:00:00 6,7 3,7 5,7 35 19 50 27 WSW 989,1 10 0,0
16.01.2018 04:00:00 6,8 3,8 6,2 34 18 47 25 WSW 989,6 10 0,0
16.01.2018 03:00:00 6,8 4,0 6,1 35 19 47 25 WSW 990,1 10 0,0
16.01.2018 02:00:00 6,5 3,3 5,8 34 18 50 27 WSW 990,7 10 0,0
16.01.2018 01:00:00 7,0 3,9 6,2 28 15 43 23 WSW 991,3 10 0,0
16.01.2018 00:00:00 6,5 4,0 5,9 29 16 43 23 WSW 991,1 10 0,0
15.01.2018 23:00:00 6,4 4,3 5,6 24 13 43 23 W 990,1 10 0,0
15.01.2018 22:00:00 7,3 5,3 6,6 34 18 47 25 W 990,1 10 0,2
15.01.2018 21:00:00 7,9 6,8 7,4 29 16 50 27 W 989,5 10 0,5
15.01.2018 20:00:00 8,1 7,3 6,9 31 17 50 27 SW 988,6 7 1,4
15.01.2018 19:00:00 6,4 5,7 6,0 37 20 58 31 S 988,5 6 1,5
15.01.2018 18:00:00 5,9 4,8 5,5 39 21 58 31 S 989,6 8 2,4
15.01.2018 17:00:00 6,2 4,9 5,8 41 22 58 31 S 991,5 9 2,1
15.01.2018 16:00:00 6,3 5,1 5,8 42 23 65 35 S 993,3 8 1,1
15.01.2018 15:00:00 5,9 5,1 5,6 42 23 65 35 S 995,0 4,0 0,7
15.01.2018 14:00:00 5,8 4,5 5,4 44 24 68 37 S 997,0 4,5 1,4
15.01.2018 13:00:00 5,8 4,5 5,3 35 19 54 29 S 999,3 7 2,2
15.01.2018 12:00:00 5,2 4,1 5,0 34 18 50 27 S 1002,0 6 0,5
15.01.2018 11:00:00 4,6 3,3 4,4 31 17 50 27 S 1004,4 9 0,0
15.01.2018 10:00:00 4,0 2,8 3,7 34 18 47 25 S 1005,7 9 0,0
15.01.2018 09:00:00 3,3 2,6 3,1 34 18 47 25 S 1007,2 4,0 0,0
15.01.2018 08:00:00 3,5 2,6 3,4 28 15 43 23 S 1008,1 2,8 0,0
15.01.2018 07:00:00 3,8 2,2 3,6 28 15 40 21 S 1009,0 7 0,0
15.01.2018 06:00:00 3,7 2,0 3,4 24 13 36 19 S 1010,0 7 0,0
15.01.2018 05:00:00 3,5 2,0 3,2 18 10 29 16 S 1011,3 7 0,0
15.01.2018 04:00:00 3,3 1,9 3,1 16 9 32 18 S 1012,5 6 0,0
15.01.2018 03:00:00 3,0 1,7 2,7 18 10 25 14 S 1013,6 7 0,0
15.01.2018 02:00:00 2,4 1,2 2,3 15 8 25 14 S 1014,4 7 0,0
15.01.2018 01:00:00 2,5 1,2 2,2 21 11 29 16 S 1015,4 8 0,0
15.01.2018 00:00:00 1,6 0,3 0,5 21 11 32 18 SSE 1016,1 9 0,0
14.01.2018 23:00:00 1,4 -0,2 0,5 21 11 29 16 SSE 1016,7 10 0,0
14.01.2018 22:00:00 1,2 -0,4 0,3 16 9 22 12 SE 1017,3 10 0,0
14.01.2018 21:00:00 1,3 -0,5 0,2 15 8 22 12 SE 1017,8 10 0,0
14.01.2018 20:00:00 1,9 -0,1 0,6 15 8 22 12 SE 1017,9 10 0,0
14.01.2018 19:00:00 2,2 -0,2 1,0 15 8 25 14 SE 1018,4 10 0,0
14.01.2018 18:00:00 3,0 0,2 1,8 14 8 25 14 ESE 1018,9 12 0,0
14.01.2018 17:00:00 2,8 0,1 1,5 13 7 22 12 ESE 1018,9 10 0,0
14.01.2018 16:00:00 4,1 0,7 3,5 16 9 25 14 ESE 1019,3 10 0,0
14.01.2018 15:00:00 5,1 1,2 5,1 15 8 25 14 E 1019,4 10 0,0
14.01.2018 14:00:00 4,6 0,8 4,6 11 6 25 14 ESE 1019,9 10 0,0
14.01.2018 13:00:00 4,4 0,8 4,5 15 8 25 14 E 1020,3 10 0,0
14.01.2018 12:00:00 3,6 0,6 3,7 15 8 25 14 E 1021,0 10 0,0
14.01.2018 11:00:00 3,0 0,3 2,9 21 11 29 16 E 1021,2 10 0,0
14.01.2018 10:00:00 2,5 0,0 2,3 18 10 29 16 E 1021,2 10 0,0
14.01.2018 09:00:00 2,4 0,0 2,1 21 11 29 16 E 1021,4 10 0,0
14.01.2018 08:00:00 2,4 0,2 2,2 18 10 29 16 E 1021,4 10 0,0
14.01.2018 07:00:00 2,7 0,5 2,4 18 10 29 16 ENE 1021,4 9 0,0
14.01.2018 06:00:00 2,8 0,8 2,6 18 10 29 16 E 1021,3 9 0,0
14.01.2018 05:00:00 3,0 1,1 2,7 18 10 29 16 E 1021,6 9 0,0
14.01.2018 04:00:00 3,2 1,2 2,7 18 10 29 16 ENE 1021,9 9 0,0
14.01.2018 03:00:00 2,2 0,7 1,3 18 10 25 14 ENE 1022,0 10 0,0
14.01.2018 02:00:00 2,6 0,9 1,7 15 8 22 12 ENE 1022,2 10 0,0
14.01.2018 01:00:00 4,2 1,4 3,7 11 6 22 12 E 1022,6 10 0,0
14.01.2018 00:00:00 3,8 1,3 2,9 13 7 22 12 E 1022,8 10 0,0
13.01.2018 23:00:00 3,4 0,9 2,1 15 8 22 12 E 1023,0 10 0,0
13.01.2018 22:00:00 3,6 1,1 1,9 11 6 14 8 E 1023,1 12 0,0
13.01.2018 21:00:00 3,1 0,5 1,4 11 6 18 10 E 1023,2 10 0,0
13.01.2018 20:00:00 4,8 1,3 3,9 16 9 25 14 ESE 1023,3 10 0,0
13.01.2018 19:00:00 5,1 1,8 4,6 16 9 25 14 ESE 1023,2 10 0,0
13.01.2018 18:00:00 5,4 1,4 4,7 22 12 36 19 ESE 1023,6 10 0,0
13.01.2018 17:00:00 5,8 2,8 5,4 21 11 29 16 ESE 1023,2 10 0,0
13.01.2018 16:00:00 6,0 4,1 5,7 18 10 25 14 ESE 1023,2 7 0,0
13.01.2018 15:00:00 6,1 4,6 6,2 15 8 25 14 E 1023,4 3,3 0,0
13.01.2018 14:00:00 5,8 4,9 6,0 13 7 18 10 E 1024,1 2,5 0,0
13.01.2018 13:00:00 5,1 4,7 5,3 11 6 18 10 ESE 1025,0 1,8 0,0
13.01.2018 12:00:00 4,6 4,2 4,9 13 7 25 14 ESE 1025,5 2,5 0,0
13.01.2018 11:00:00 4,2 3,8 4,2 16 9 22 12 ESE 1025,5 2,2 0,0
13.01.2018 10:00:00 3,7 3,7 3,8 13 7 22 12 ESE 1025,3 1,0 0,0
13.01.2018 09:00:00 3,3 3,3 3,3 11 6 22 12 SE 1025,2 0,7 0,0
13.01.2018 08:00:00 3,3 3,3 3,3 15 8 22 12 ESE 1025,1 1,8 0,0
13.01.2018 07:00:00 3,2 2,8 3,2 15 8 25 14 ESE 1025,3 4,3 0,0
13.01.2018 06:00:00 3,8 2,9 3,3 9 5 14 8 ESE 1025,3 10 0,0
13.01.2018 05:00:00 4,1 3,1 3,8 9 5 18 10 ESE 1025,7 10 0,0
13.01.2018 04:00:00 4,2 3,3 4,0 11 6 22 12 ESE 1026,0 9 0,0
13.01.2018 03:00:00 4,1 3,1 3,6 16 9 22 12 ESE 1026,4 7 0,0
13.01.2018 02:00:00 4,2 3,5 3,8 13 7 18 10 E 1026,2 6 0,0
13.01.2018 01:00:00 4,5 4,1 4,3 8 4 11 6 ESE 1026,5 7 0,0
13.01.2018 00:00:00 4,6 4,1 4,4 5 3 7 4 E 1026,8 8 0,0
12.01.2018 23:00:00 4,5 3,9 4,2 8 4 7 4 E 1027,1 10 0,0
12.01.2018 22:00:00 3,9 3,1 3,1 4 2 7 4 E 1027,2 10 0,0
12.01.2018 21:00:00 3,9 2,9 3,1 4 2 11 6 E 1027,2 10 0,0
12.01.2018 20:00:00 4,2 3,4 3,7 8 4 11 6 E 1027,0 10 0,0
12.01.2018 19:00:00 4,2 3,2 3,6 8 4 11 6 E 1026,8 10 0,0
12.01.2018 18:00:00 4,0 3,0 3,5 5 3 11 6 ENE 1026,8 10 0,0
12.01.2018 17:00:00 4,6 3,1 4,2 5 3 11 6 ENE 1026,7 10 0,0
12.01.2018 16:00:00 5,4 3,8 5,2 5 3 14 8 ENE 1026,6 10 0,0
12.01.2018 15:00:00 5,7 3,6 5,8 8 4 22 12 - 1026,5 10 0,0
12.01.2018 14:00:00 5,4 4,4 5,5 9 5 18 10 E 1026,5 10 0,0
12.01.2018 13:00:00 6,0 4,6 6,2 9 5 36 19 ENE 1026,7 8 0,0
12.01.2018 12:00:00 6,1 4,7 6,2 9 5 22 12 N 1027,2 8 0,0
12.01.2018 11:00:00 6,0 4,3 5,7 9 5 22 12 - 1027,1 7 0,0
12.01.2018 10:00:00 5,6 4,6 5,3 9 5 22 12 NE 1026,9 6 0,0
12.01.2018 09:00:00 5,3 5,0 5,1 9 5 14 8 N 1026,6 2,8 0,0
12.01.2018 08:00:00 5,3 5,1 5,3 9 5 14 8 N 1026,1 2,5 0,0
12.01.2018 07:00:00 5,4 5,1 5,3 9 5 14 8 NNE 1025,7 2,2 0,0
12.01.2018 06:00:00 5,3 5,1 5,2 5 3 11 6 NNE 1025,5 3,0 0,0

tt = Température de l'air
td = dewpoint
tt 5cm = Température de l'air 5cm
ff = Vitesse du vent
fx = gusts
dd = Direction du vent
ppp = reduced air pressure
vv = visibility
rr = Quantités de précipitations

stations d'obs. à proximité